La Crosse Municipal Airport La Crosse US
ICAO: KLSE
IATA: LSE
Category: Medium
Scheduled Services: Yes

Elevation: 655 ft
TransAlt. 18000 ft.

Airport Communications:
ATIS:124.95
MINNEAPOLIS CNTR:128.6
CTAF:118.45
GND:121.8
GREEN BAY RDO:122.2
TWR:118.45
UNICOM:122.95

KLSE Zoom In..

Runways:

(A) RW 03 length 5199 ft width 150 ft
---- / hdg 34

(B) RW 13 length 6050 ft width 150 ft
---- / hdg 132

(C) RW 18 length 8742 ft width 150 ft
ILS 111.10 / hdg 177

(D) RW 21 length 5199 ft width 150 ft
---- / hdg 214

(E) RW 31 length 6050 ft width 150 ft
---- / hdg 312

(F) RW 36 length 8742 ft width 150 ft
---- / hdg 357

Location; KLSE
Day. 30 / Time. 21.53 Zulu
* Altimeter: 30.12
* Temperature: -01° c. -30.2°f.
* Wind from: 330° Speed 09 kn.
Dewpoint: -09° c.
Visibility: 10 Statute Miles.
Clouds: Clear (automated report).

KLSE 302153Z 33009KT 10SM CLR M01/M09 A3012 RMK AO2 SLP212 T10061094

Going to: --> -->


Wind From 330°
Speed 09 kn.

 
 
jpsmedia worldairports.se 2020   terms of use